• în România
  • Lista ţărilor
  • Pe 7 zile
  • Temperatura apei
  • Hartă satelitară
  • Meteo pe hartă
  • Widget-uri
  • user-avatar
    Intrare

    Meteo pe oră la Igunkovo

    Astăzi, 18 Septembrie, Marţi

    Timp Temperatura Precipitaţii Vânt Presiune Umiditate
    00:00 +10°C° 0.2 mm 5 m/s 738 mmHg 91%
    01:00 +10°C° 0.2 mm 5 m/s 738 mmHg 91%
    02:00 +12°C° 0 mm 4 m/s 737 mmHg 92%
    03:00 +11°C° 0.1 mm 4 m/s 737 mmHg 92%
    04:00 +11°C° 0.1 mm 4 m/s 737 mmHg 92%
    05:00 +11°C° 0.1 mm 4 m/s 737 mmHg 92%
    06:00 +10°C° 0.1 mm 5 m/s 737 mmHg 90%
    07:00 +12°C° 0.1 mm 5 m/s 737 mmHg 88%
    08:00 +11°C° 0 mm 6 m/s 738 mmHg 85%
    09:00 +11°C° 0.1 mm 6 m/s 738 mmHg 82%
    10:00 +11°C° 0.1 mm 6 m/s 738 mmHg 78%
    11:00 +11°C° 0.1 mm 6 m/s 739 mmHg 74%
    12:00 +13°C° 0.1 mm 6 m/s 739 mmHg 71%
    13:00 +13°C° 0.1 mm 6 m/s 739 mmHg 68%
    14:00 +13°C° 0 mm 5 m/s 740 mmHg 63%
    15:00 +13°C° 0 mm 5 m/s 740 mmHg 64%
    16:00 +12°C° 0 mm 4 m/s 741 mmHg 65%
    17:00 +12°C° 0 mm 4 m/s 741 mmHg 66%
    18:00 +11°C° 0 mm 3 m/s 741 mmHg 70%
    19:00 +10°C° 0 mm 3 m/s 741 mmHg 74%
    20:00 +9°C° 0 mm 3 m/s 742 mmHg 78%
    21:00 +9°C° 0 mm 3 m/s 742 mmHg 78%
    22:00 +9°C° 0 mm 3 m/s 742 mmHg 78%
    23:00 +9°C° 0 mm 3 m/s 742 mmHg 79%

    Mâine, 19 Septembrie, Miercuri

    Timp Temperatura Precipitaţii Vânt Presiune Umiditate
    00:00 +9°C° 0 mm 3 m/s 742 mmHg 81%
    01:00 +9°C° 0 mm 2 m/s 742 mmHg 83%
    02:00 +9°C° 0 mm 2 m/s 742 mmHg 85%
    03:00 +9°C° 0.3 mm 2 m/s 741 mmHg 88%
    04:00 +9°C° 0.3 mm 2 m/s 741 mmHg 90%
    05:00 +9°C° 0.3 mm 2 m/s 741 mmHg 93%
    06:00 +10°C° 0.7 mm 2 m/s 741 mmHg 94%
    07:00 +10°C° 0.7 mm 2 m/s 741 mmHg 94%
    08:00 +10°C° 0.7 mm 3 m/s 741 mmHg 95%
    09:00 +12°C° 0 mm 3 m/s 741 mmHg 93%
    10:00 +13°C° 0 mm 3 m/s 741 mmHg 91%
    11:00 +14°C° 0 mm 3 m/s 741 mmHg 88%
    12:00 +14°C° 0 mm 3 m/s 740 mmHg 86%
    13:00 +16°C° 0 mm 3 m/s 740 mmHg 84%
    14:00 +16°C° 0 mm 3 m/s 740 mmHg 82%
    15:00 +16°C° 0 mm 2 m/s 740 mmHg 84%
    16:00 +15°C° 0 mm 2 m/s 740 mmHg 86%
    17:00 +15°C° 0 mm 1 m/s 740 mmHg 88%
    18:00 +14°C° 0 mm 1 m/s 740 mmHg 90%
    19:00 +14°C° 0 mm 1 m/s 740 mmHg 92%
    20:00 +13°C° 0 mm 2 m/s 740 mmHg 93%
    21:00 +13°C° 0 mm 2 m/s 740 mmHg 94%
    22:00 +13°C° 0 mm 2 m/s 740 mmHg 94%
    23:00 +13°C° 0 mm 2 m/s 740 mmHg 94%

    Poimâine, 20 Septembrie, Joi

    Timp Temperatura Precipitaţii Vânt Presiune Umiditate
    00:00 +12°C° 0 mm 3 m/s 740 mmHg 95%
    01:00 +13°C° 0 mm 3 m/s 740 mmHg 95%
    02:00 +13°C° 0 mm 3 m/s 740 mmHg 95%
    03:00 +13°C° 0 mm 3 m/s 740 mmHg 96%
    04:00 +13°C° 0 mm 3 m/s 740 mmHg 96%
    05:00 +13°C° 0 mm 3 m/s 740 mmHg 97%
    06:00 +13°C° 0 mm 3 m/s 740 mmHg 94%
    07:00 +14°C° 0 mm 4 m/s 741 mmHg 91%
    08:00 +14°C° 0 mm 4 m/s 741 mmHg 88%
    09:00 +15°C° 0 mm 4 m/s 742 mmHg 84%
    10:00 +15°C° 0 mm 4 m/s 742 mmHg 80%
    11:00 +17°C° 0 mm 4 m/s 742 mmHg 77%
    12:00 +18°C° 0 mm 4 m/s 742 mmHg 75%
    13:00 +18°C° 0 mm 4 m/s 743 mmHg 73%
    14:00 +19°C° 0 mm 3 m/s 743 mmHg 71%
    15:00 +18°C° 0 mm 3 m/s 743 mmHg 75%
    16:00 +17°C° 0 mm 2 m/s 743 mmHg 79%
    17:00 +17°C° 0 mm 2 m/s 743 mmHg 83%
    18:00 +16°C° 0 mm 2 m/s 743 mmHg 87%
    19:00 +15°C° 0 mm 2 m/s 743 mmHg 91%
    20:00 +14°C° 0 mm 2 m/s 743 mmHg 94%
    21:00 +14°C° 0 mm 2 m/s 743 mmHg 95%
    22:00 +14°C° 0 mm 2 m/s 744 mmHg 95%
    23:00 +13°C° 0 mm 2 m/s 744 mmHg 95%

    21 Septembrie, Vineri

    Timp Temperatura Precipitaţii Vânt Presiune Umiditate
    00:00 +13°C° 0 mm 2 m/s 744 mmHg 96%
    01:00 +13°C° 0 mm 2 m/s 744 mmHg 96%
    02:00 +13°C° 0 mm 2 m/s 744 mmHg 96%
    03:00 +13°C° 0 mm 2 m/s 744 mmHg 96%
    04:00 +13°C° 0 mm 2 m/s 744 mmHg 96%
    05:00 +13°C° 0 mm 2 m/s 744 mmHg 96%
    06:00 +14°C° 0 mm 2 m/s 744 mmHg 92%
    07:00 +15°C° 0 mm 2 m/s 745 mmHg 87%
    08:00 +17°C° 0 mm 3 m/s 745 mmHg 83%
    09:00 +18°C° 0 mm 3 m/s 745 mmHg 78%
    10:00 +20°C° 0 mm 3 m/s 745 mmHg 73%
    11:00 +21°C° 0 mm 3 m/s 745 mmHg 68%
    12:00 +22°C° 0 mm 3 m/s 745 mmHg 66%
    13:00 +24°C° 0 mm 3 m/s 745 mmHg 65%
    14:00 +24°C° 0 mm 3 m/s 745 mmHg 63%
    15:00 +22°C° 0 mm 3 m/s 745 mmHg 69%
    16:00 +21°C° 0 mm 3 m/s 745 mmHg 75%
    17:00 +20°C° 0 mm 2 m/s 745 mmHg 81%
    18:00 +19°C° 0 mm 2 m/s 745 mmHg 85%
    19:00 +18°C° 0 mm 2 m/s 745 mmHg 89%
    20:00 +17°C° 0 mm 2 m/s 745 mmHg 93%
    21:00 +17°C° 0.1 mm 2 m/s 745 mmHg 94%
    22:00 +17°C° 0.1 mm 2 m/s 745 mmHg 94%
    23:00 +16°C° 0.1 mm 2 m/s 745 mmHg 95%

    22 Septembrie, Sâmbătă

    Timp Temperatura Precipitaţii Vânt Presiune Umiditate
    00:00 +16°C° 0.1 mm 2 m/s 745 mmHg 95%
    01:00 +16°C° 0.1 mm 3 m/s 744 mmHg 95%
    02:00 +16°C° 0.1 mm 3 m/s 744 mmHg 95%
    03:00 +14°C° 0 mm 3 m/s 744 mmHg 95%
    04:00 +14°C° 0 mm 3 m/s 744 mmHg 95%
    05:00 +14°C° 0 mm 3 m/s 744 mmHg 95%
    06:00 +16°C° 0 mm 3 m/s 744 mmHg 91%
    07:00 +17°C° 0 mm 4 m/s 743 mmHg 87%
    08:00 +18°C° 0 mm 4 m/s 743 mmHg 84%
    09:00 +19°C° 0 mm 4 m/s 743 mmHg 77%
    10:00 +21°C° 0 mm 5 m/s 743 mmHg 71%
    11:00 +22°C° 0 mm 5 m/s 742 mmHg 65%
    12:00 +23°C° 0 mm 5 m/s 742 mmHg 62%
    13:00 +23°C° 0 mm 6 m/s 741 mmHg 58%
    14:00 +24°C° 0 mm 6 m/s 741 mmHg 55%
    15:00 +22°C° 0 mm 5 m/s 741 mmHg 59%
    16:00 +21°C° 0 mm 5 m/s 740 mmHg 63%
    17:00 +20°C° 0 mm 4 m/s 740 mmHg 67%
    18:00 +20°C° 0 mm 4 m/s 739 mmHg 70%
    19:00 +19°C° 0 mm 4 m/s 739 mmHg 72%
    20:00 +18°C° 0 mm 4 m/s 739 mmHg 74%
    21:00 +18°C° 0 mm 4 m/s 739 mmHg 76%
    22:00 +18°C° 0 mm 4 m/s 739 mmHg 78%
    23:00 +17°C° 0 mm 4 m/s 738 mmHg 79%

    23 Septembrie, Duminică

    Timp Temperatura Precipitaţii Vânt Presiune Umiditate
    00:00 +17°C° 0.1 mm 4 m/s 738 mmHg 82%
    01:00 +15°C° 0.1 mm 4 m/s 738 mmHg 84%
    02:00 +16°C° 0.1 mm 3 m/s 738 mmHg 87%
    03:00 +14°C° 0.2 mm 3 m/s 738 mmHg 88%
    04:00 +14°C° 0.2 mm 3 m/s 738 mmHg 89%
    05:00 +14°C° 0.2 mm 3 m/s 738 mmHg 90%
    06:00 +14°C° 0.1 mm 3 m/s 738 mmHg 89%
    07:00 +14°C° 0.1 mm 3 m/s 738 mmHg 87%
    08:00 +16°C° 0.1 mm 3 m/s 737 mmHg 86%
    09:00 +16°C° 0.1 mm 3 m/s 737 mmHg 85%
    10:00 +16°C° 0.1 mm 3 m/s 737 mmHg 83%
    11:00 +16°C° 0.1 mm 3 m/s 737 mmHg 82%
    12:00 +14°C° 0.5 mm 3 m/s 737 mmHg 84%
    13:00 +14°C° 0.5 mm 3 m/s 737 mmHg 86%
    14:00 +13°C° 0.5 mm 3 m/s 737 mmHg 87%
    15:00 +12°C° 1.1 mm 3 m/s 737 mmHg 88%
    16:00 +11°C° 1.1 mm 3 m/s 738 mmHg 89%
    17:00 +10°C° 1.1 mm 3 m/s 738 mmHg 90%
    18:00 +9°C° 0.1 mm 3 m/s 738 mmHg 90%
    19:00 +9°C° 0.1 mm 3 m/s 739 mmHg 91%
    20:00 +9°C° 0.1 mm 3 m/s 739 mmHg 91%
    21:00 +9°C° 0 mm 2 m/s 740 mmHg 92%
    22:00 +8°C° 0 mm 2 m/s 740 mmHg 93%
    23:00 +8°C° 0 mm 2 m/s 740 mmHg 94%
    Arată mai mult